Flag for U.S.A. Weather past 2 weeks in Lewiston, Idaho, U.S.A.

Now
36 °F

Partly sunny.


Feels Like: 32 °F
Forecast: 26 / 39 °F
Wind: 5 mph from South

Location: Lewiston-Nez Perce County Airport

Current Time: Dec 26, 2014 at 10:33:57 AM

Latest Report: Dec 26, 2014 at 9:56 AM


Visibility: 10 mi

Pressure: 30.32 "Hg

Humidity: 79%

Dew point: 30 °F

Location of LewistonLocation

Historic Weather in Lewiston — Graph

°F

Lewiston temperature yesterday

Maximum temperature yesterday: 43 °F (at 1:56 PM)
Minimum temperature yesterday: 33 °F (at 7:56 AM)
Average temperature yesterday: 38 °F

Past Weeks' High & Low Weather Summary

 TemperatureHumidityPressure
High65 °F (Dec 11, 1:56 PM)100% (Dec 14, 7:56 AM)30.42 "Hg (Dec 14, 7:56 AM)
Low29 °F (Dec 14, 7:56 AM)36% (Dec 11, 7:56 PM)29.41 "Hg (Dec 11, 2:56 PM)
Average42 °F77%30.00 "Hg
* Reported Dec 11 8:56 AM — Dec 26 8:56 AM, Lewiston, Weather by CustomWeather, © 2014

Note: Actual official high and low records may vary slightly from our data, if they occured in-between our weather recording intervals... More about our weather records

Advertising

Lewiston weather history for previous 24 hours

 ConditionsComfort  
Time TempWeatherWind HumidityBarometerVisibility
8:56 AM
Dec 26
35 °FScattered clouds.No wind78%30.29 "Hg10 mi
7:56 AM33 °FScattered clouds.5 mph82%30.27 "Hg10 mi
6:56 AM33 °FClear.5 mph82%30.25 "Hg10 mi
5:56 AM33 °FOvercast.6 mph82%30.25 "Hg10 mi
4:56 AM34 °FPassing clouds.8 mph82%30.22 "Hg10 mi
3:56 AM34 °FMostly cloudy.5 mph82%30.21 "Hg10 mi
2:56 AM33 °FOvercast.6 mph88%30.20 "Hg10 mi
1:56 AM35 °FOvercast.No wind82%30.19 "Hg10 mi
12:56 AM34 °FOvercast.No wind82%30.18 "Hg10 mi
11:56 PM
Dec 25
36 °FOvercast.No wind75%30.18 "Hg10 mi
10:56 PM37 °FOvercast.No wind70%30.19 "Hg10 mi
9:56 PM37 °FOvercast.No wind70%30.19 "Hg10 mi
8:56 PM37 °FOvercast.5 mph70%30.18 "Hg10 mi
7:56 PM36 °FOvercast.7 mph73%30.17 "Hg10 mi
6:56 PM37 °FOvercast.5 mph73%30.18 "Hg10 mi
5:56 PM38 °FOvercast.3 mph68%30.16 "Hg10 mi
4:56 PM38 °FMostly cloudy.6 mph68%30.15 "Hg10 mi
3:56 PM38 °FSunny.7 mph65%30.14 "Hg10 mi
2:56 PM42 °FSunny.9 mph53%30.11 "Hg10 mi
1:56 PM43 °FSunny.10 mph56%30.10 "Hg10 mi
12:56 PM42 °FSunny.No wind53%30.09 "Hg10 mi
11:56 AM42 °FSunny.No wind53%30.09 "Hg10 mi
10:56 AM40 °FSunny.3 mph60%30.10 "Hg10 mi
Weather by CustomWeather, © 2014

See weather overviewHow to use our weather pages